Content
SEND FEEDBACK

Daily
Averages
Monthly
Summary
United States of America

AUSTIN - OAK RUN WEST, TEXAS


Home > North America > United States > Texas
Elevation: 1120 feet     Latitude: 30 13N     Longitude: 097 59W

WEATHER
 
SELECT A DAY
Number of Records: 182,557;   Date Range: 1/1/95 - 9/13/14
 
SHARE

PRINT THIS DATA

[ ← Previous Day ]
WEATHER ALMANAC - FEBRUARY 13, 2013
[ Next Day → ]
[ °C ]   °F
Weather ElementAverageHighLow
Temperature50.9 °F63 °F (2:51 pm)41 °F (5:51 am)
Dewpoint32.9 °F37 °F (11:51 pm)28.9 °F (5:51 pm)
Humidity53 %76 % (11:51 pm)29 % (4:51 pm)
Barometer30.11 in30.17 in (8:51 am)30.04 in (4:51 pm)
Wind Speed6.2 mph11.5 mph (1:51 am)
Wind Gust25.3 mph (3:51 am)
Weather ElementAverage
Visibility10 mi
Wind DirectionS (177.4 °)

Weather ElementTotal
Precipitation---
Heating Degree Days13 (Base 65)
Growing Degree Days2 (Base 50)
Averaged from 23 records on February 13, 2013
WEATHER CONDITIONS BREAKOUT
WIND DIRECTION BREAKOUT
WEATHER BY HOUR - FEBRUARY 13, 2013
[ °C ]   °F
Local TimeTemperatureDewpointHumidityBarometerVisibilityWind DirectionWind SpeedGust SpeedPrecipitationEventsConditions
1:51 AM45.0 °F33.1 °F63 %30.11 in10.0 miNW (320°)11.5 mph18.4 mphClear
2:51 AM44.1 °F32.0 °F63 %30.09 in10.0 miNW (320°)9.2 mph20.7 mphClear
3:51 AM43.0 °F32.0 °F65 %30.09 in10.0 miNW (320°)10.4 mph25.3 mphClear
4:51 AM42.1 °F32.0 °F67 %30.11 in10.0 miNNW (330°)10.4 mph19.6 mphClear
5:51 AM41.0 °F33.1 °F73 %30.11 in10.0 miVariable6.9 mph19.6 mphClear
6:51 AM41.0 °F33.1 °F73 %30.14 in10.0 miNNW (330°)8.1 mphClear
7:51 AM41.0 °F33.1 °F73 %30.15 in10.0 miNNW (330°)8.1 mphClear
8:51 AM45.0 °F33.1 °F63 %30.17 in10.0 miNNW (330°)10.4 mph17.3 mphClear
9:51 AM48.9 °F33.1 °F54 %30.17 in10.0 miNNW (340°)9.2 mph17.3 mphClear
10:51 AM53.1 °F33.1 °F47 %30.16 in10.0 miNorth (350°)9.2 mph18.4 mphClear
11:51 AM57.0 °F34.0 °F42 %30.15 in10.0 miVariable4.6 mphClear
12:51 PM59.0 °F34.0 °F39 %30.13 in10.0 miNorth (360°)9.2 mphClear
1:51 PM61.0 °F33.1 °F35 %30.09 in10.0 miNorth (350°)8.1 mphClear
2:51 PM63.0 °F32.0 °F31 %30.06 in10.0 miVariable5.8 mphClear
3:51 PM63.0 °F30.9 °F30 %30.05 in10.0 miVariable3.5 mphClear
4:51 PM63.0 °F30.0 °F29 %30.04 in10.0 miVariable3.5 mphClear
5:51 PM60.1 °F28.9 °F31 %30.04 in10.0 miNorth (350°)6.9 mphClear
6:51 PM55.9 °F28.9 °F36 %30.06 in10.0 miCalmClear
7:51 PM53.1 °F34.0 °F48 %30.09 in10.0 miCalmClear
8:51 PM51.1 °F35.1 °F54 %30.09 in10.0 miVariable3.5 mphClear
9:51 PM48.9 °F36.0 °F61 %30.10 in10.0 miNE (50°)3.5 mphClear
10:51 PM46.9 °F36.0 °F66 %30.11 in10.0 miCalmClear
11:51 PM44.1 °F37.0 °F76 %30.11 in10.0 miCalmClear
Hourly data recorded from KATT, located miles away from Austin - Oak Run West, Texas







STORIES FROM OUR PARTNERS